FALCON 9 R/B, 43563

Orbit data source: Space-Track

FALCON 9 R/B, 43563 is space debris originally from a launch on Sun, 22 Jul 2018 UTC launched from the Air Force Eastern Test Range (AFETR). Debris objects in space refer to the collection of defunct objects orbiting the Earth. Examples of debris include non-operational satellites, rocket bodies, and fragments generated from explosions, collisions, or faulty payload assembly.

Not visible in the next 10 days
Identifier
43563, 2018-059B
Orbit
Active
Country
Flag of USUS
Related business
Manufacturer
SpaceX
Mission
Spacecraft
Bus & Motor
F9ST2, Unknown motor
Mass
~4,000 kg wet, ~4,000 kg dry
Launch date (UTC)
2018-07-22 (7 years ago)
Launch vehicle
Unknown
Launch site
Air Force Eastern Test Range (AFETR)
Object type
Payload
Rocket body
Debris
Shape & HBR
Cyl, 7.8 m
Radar Cross Section
39.980 m², Large (>1 m²)

Expand to show TLE details & history
Last TLE update: 10 hours ago

TLE from 10 hours ago
0 FALCON 9 R/B
1 43563U 18059B   25295.94907179  .00077083  00000-0  15004-2 0  9990
2 43563  26.9460 123.4854 4300220  92.6498 315.7621  6.97996016140469
Epoch: 2025-10-22T22:46Z
TLE epoch observation values (Epoch: 2025-10-22T22:46:39.802Z)
Latitude
0.00002°
Longitude
110.20424°
Altitude
3,235.048 km
Speed
6.962 km/s
True Right ascension
08h 13m 56s
True Declination
0° 00' 00"
Sunlit
Object was in daylight at epoch
Visualization orbit readout
Latitude
Unknown
Longitude
Unknown
Altitude
Unknown
Speed
Unknown
Apparent Right ascension
Unknown
Apparent Declination
Unknown
Sunlit
N/A
Visualization observer readout
Local Sidereal Time
03:56:17
Azimuth
Unknown
Elevation
Unknown
Doppler factor
Unknown
Orbital elements
Apogee altitude
10,165.996 km
Perigee altitude
216.021 km
Semi-major axis
11,569.146 km
Eccentricity
0.43002
Inclination
26.946°
RAAN
123.4854°
Arg. of periapsis
92.6498°
True anomaly
267.40057°
Mean anomaly
315.7621°
Eccentric anomaly
293.09895°
Mean motion
1.74418 °/min
Orbital period
206.4 mins
BSTAR
0.0015004
Loading maneuver chart data...
Computing Atmospheric mass density...
Loading historical data...
Loading historical data...
Loading historical data...
Loading historical data...
Loading historical data...
Loading historical data...
Loading historical data...
Other satellites on launch #59 in the year 2018 (2018-07-22 UTC)

Documentation

Showing up to 5 results
|